Location: Unspecified
(0.0000°N, 0.0000°E)
Time: 23:52:07
(UTC+02:00)

Centaur D-1AR AC-41 - Visible Passes

Search period start: 27 May 2015 00:00
Search period end: 06 June 2015 00:00
Orbit: 596 x 36247 km, 21.5° (Epoch: 25 May)

Date Brightness Start Highest point End Pass type
(mag) Time Alt. Az. Time Alt. Az. Time Alt. Az.
27 May 7.0 10:49:08 10° WSW 20:38:54 55° NNW 21:00:04 10° NE visible
29 May 4.4 05:47:42 50° SSW 05:48:02 51° S 06:12:41 10° ESE visible
30 May 6.5 15:02:28 10° WSW 00:38:48 17° NNW 00:38:48 17° NNW visible
31 May 6.5 12:07:39 10° WSW 22:03:02 39° NNW 22:14:14 10° NE visible
02 Jun 5.5 06:58:26 17° WSW 07:05:54 45° S 17:05:15 10° ENE visible
03 Jun 5.8 04:34:10 26° ESE 04:34:10 26° ESE 04:40:45 10° ESE visible
04 Jun 5.9 13:30:44 10° WSW 23:22:15 27° NNW 23:24:57 24° N visible
05 Jun 6.8 10:46:49 10° WSW 20:39:07 50° NNW 20:56:54 10° NE visible
